Kaltag, AK

4:22 AM AKST on December 10, 2016 (GMT -0900)
Kaltag

Weather History for PAKV - September, 2013

Change the Weather History Date:

Tuesday, September 24, 2013

  Actual Average (PAGA) Record (PAGA)
Temperature  
Mean Temperature 35 °F -  
Max Temperature 43 °F 44 °F 62 °F (1997)
Min Temperature 28 °F 31 °F 2 °F (1992)
Degree Days  
Heating Degree Days 30    
Moisture  
Dew Point 27 °F    
Average Humidity 72    
Maximum Humidity 92    
Minimum Humidity 45    
Precipitation  
Precipitation 0.03 in - - ()
Sea Level Pressure  
Sea Level Pressure 29.82 in    
Wind  
Wind Speed 2 mph (NE)    
Max Wind Speed 9 mph    
Max Gust Speed -    
Visibility 10 miles    
Events Snow    
Averages and records for this station are not official NWS values.
T = Trace of Precipitation, MM = Missing Value Source: NWS Daily Summary

Daily Weather History Graph

Daily Weather History Graph

Search for Another Location

Airport or City:

Trip Planner

Search our weather history database for the weather conditions in past years. The results will help you decide how hot, cold, wet, or windy it might be!

Date:

Astronomy

Sep. 24, 2013 Rise Set
Actual Time 8:25 AM AKDT 8:26 PM AKDT
Civil Twilight 7:37 AM AKDT 9:14 PM AKDT
Nautical Twilight 6:38 AM AKDT 10:12 PM AKDT
Astronomical Twilight 5:32 AM AKDT 11:17 PM AKDT
Moon 9:53 PM AKDT (9/24) 3:49 PM AKDT (9/24)
Length of Visible Light 13h 37m
Length of Day
12h 01m
Waning Gibbous, 72% of the Moon is Illuminated
Sep 24
Waning Gibbous
Sep 26
Last Quarter
Oct 4
New
Oct 11
First Quarter
Oct 18
Full

Hourly Weather History & Observations

Time (AKDT) Temp. Windchill Dew Point Humidity Pressure Visibility Wind Dir Wind Speed Gust Speed Precip Events Conditions
12:53 AM 30.9 °F - 26.1 °F 82% 29.90 in 10.0 mi Calm Calm - N/A   Overcast
1:53 AM 30.0 °F - 27.0 °F 88% 29.90 in 10.0 mi Calm Calm - N/A   Overcast
2:53 AM 30.0 °F - 27.0 °F 88% 29.91 in 10.0 mi Calm Calm - N/A   Overcast
3:53 AM 30.0 °F - 27.0 °F 88% 29.93 in 10.0 mi Calm Calm - N/A   Overcast
4:53 AM 30.0 °F - 27.0 °F 88% 29.93 in 10.0 mi Calm Calm - N/A   Overcast
5:53 AM 28.9 °F - 26.1 °F 89% 29.93 in 10.0 mi Calm Calm - N/A   Overcast
6:53 AM 28.0 °F - 26.1 °F 92% 29.93 in 10.0 mi Calm Calm - N/A   Overcast
7:53 AM 28.9 °F - 27.0 °F 92% 29.93 in 10.0 mi Calm Calm - N/A   Overcast
8:53 AM 30.0 °F - 27.0 °F 88% 29.94 in 10.0 mi Calm Calm - N/A   Overcast
9:53 AM 32.0 °F - 28.9 °F 88% 29.93 in 10.0 mi Calm Calm - N/A   Overcast
10:53 AM 36.0 °F - 30.0 °F 79% 29.92 in 10.0 mi Calm Calm - N/A   Overcast
11:53 AM 37.9 °F - 28.9 °F 70% 29.91 in 10.0 mi Calm Calm - N/A   Clear
12:53 PM 37.9 °F 33.5 °F 28.9 °F 70% 29.88 in 10.0 mi NNE 5.8 mph - N/A   Clear
1:53 PM 41.0 °F 35.2 °F 28.9 °F 62% 29.84 in 10.0 mi NNE 9.2 mph - N/A   Clear
2:53 PM 41.0 °F 35.8 °F 27.0 °F 57% 29.83 in 10.0 mi ENE 8.1 mph - N/A   Partly Cloudy
3:53 PM 42.1 °F 38.4 °F 24.1 °F 49% 29.79 in 10.0 mi ENE 5.8 mph - N/A   Clear
4:53 PM 42.1 °F 37.7 °F 21.9 °F 45% 29.76 in 10.0 mi ENE 6.9 mph - N/A   Clear
5:53 PM 42.1 °F 37.7 °F 23.0 °F 47% 29.74 in 10.0 mi NE 6.9 mph - N/A   Scattered Clouds
6:53 PM 41.0 °F 37.1 °F 23.0 °F 49% 29.70 in 10.0 mi NE 5.8 mph - N/A   Overcast
7:53 PM 41.0 °F 36.4 °F 24.1 °F 51% 29.67 in 10.0 mi NE 6.9 mph - N/A   Overcast
8:53 PM 39.9 °F 37.8 °F 23.0 °F 51% 29.66 in 10.0 mi ENE 3.5 mph - N/A   Overcast
9:53 PM 39.0 °F - 25.0 °F 57% 29.62 in 10.0 mi Calm Calm - N/A   Overcast
10:53 PM 37.0 °F - 30.9 °F 79% 29.61 in 10.0 mi Calm Calm - 0.00 in   Overcast
11:53 PM 35.1 °F - 32.0 °F 89% 29.60 in 4.0 mi Calm Calm - 0.03 in Snow Light Snow